Weather History for Garrison, ND

Change the Weather History Date:

Monday, February 25, 2013

  Actual Average Record
Temperature  
Mean Temperature 24 °F -  
Max Temperature 39 °F 23 °F 39 °F (2013)
Min Temperature 9 °F 6 °F -15 °F (2011)
Degree Days  
Heating Degree Days 41    
Month to date heating degree days 1178  
Moisture  
Dew Point 18 °F    
Average Humidity 82    
Maximum Humidity 100    
Minimum Humidity 64    
Precipitation  
Precipitation 0.00 in - - ()
Month to date precipitation 0.59  
Year to date precipitation 1.09  
Sea Level Pressure  
Sea Level Pressure 29.98 in    
Wind  
Wind Speed 4 mph (South)    
Max Wind Speed 12 mph    
Max Gust Speed 14 mph    
Averages and records for this station are not official NWS values.
T = Trace of Precipitation, MM = Missing Value Source: NWS Daily Summary

Daily Weather History Graph

Daily Weather History Graph

Search for Another Location

Airport:

Trip Planner

Search our weather history database for the weather conditions in past years. The results will help you decide how hot, cold, wet, or windy it might be!

Date:

Astronomy

Feb. 25, 2013 Rise Set
Actual Time 7:33 AM CST 6:24 PM CST
Civil Twilight 7:02 AM CST 6:56 PM CST
Nautical Twilight 6:26 AM CST 7:31 PM CST
Astronomical Twilight 5:50 AM CST 8:07 PM CST
Moon 6:45 PM CST (2/25) 7:01 AM CST (2/25)
Length of Visible Light 11h 53m
Length of Day
10h 51m
Full, 100% of the Moon is Illuminated
Feb 25
Full
Feb 25
Full
Mar 4
Last Quarter
Mar 11
New
Mar 19
First Quarter

Hourly Weather History & Observations

Time (CST) Temp. Windchill Dew Point Humidity Pressure Visibility Wind Dir Wind Speed Gust Speed Precip Events Conditions
12:52 AM 15.1 °F - 12.0 °F 88% 30.10 in - Calm Calm - N/A   Unknown
1:52 AM 12.0 °F - 8.1 °F 84% 30.10 in - Calm Calm - N/A   Unknown
2:52 AM 10.9 °F - 8.1 °F 88% 30.10 in - Calm Calm - N/A   Unknown
3:52 AM 12.0 °F - 8.1 °F 84% 30.07 in - Calm Calm - N/A   Unknown
4:52 AM 10.9 °F - 7.0 °F 84% 30.06 in - Calm Calm - N/A   Unknown
5:52 AM 10.9 °F - 8.1 °F 88% 30.06 in - Calm Calm - N/A   Unknown
6:52 AM 10.9 °F 2.9 °F 8.1 °F 88% 30.05 in - South 4.6 mph - N/A   Unknown
7:52 AM 10.9 °F 4.7 °F 9.0 °F 92% 30.04 in - SSE 3.5 mph - N/A   Unknown
8:52 AM 15.1 °F - 15.1 °F 100% 30.04 in - Calm Calm - N/A   Unknown
9:52 AM 19.0 °F 13.9 °F 19.0 °F 100% 30.03 in - South 3.5 mph - N/A   Unknown
10:52 AM 27.0 °F 19.5 °F 19.9 °F 75% 29.99 in - South 6.9 mph - N/A   Unknown
11:52 AM 30.9 °F 25.2 °F 23.0 °F 72% 29.96 in - South 5.8 mph - N/A   Unknown
12:52 PM 35.1 °F 28.6 °F 26.1 °F 70% 29.95 in - SSW 8.1 mph - N/A   Unknown
1:52 PM 37.0 °F 31.0 °F 27.0 °F 67% 29.93 in - South 8.1 mph - N/A   Unknown
2:52 PM 37.9 °F 31.5 °F 28.0 °F 68% 29.91 in - SSW 9.2 mph - N/A   Unknown
3:52 PM 39.0 °F 32.8 °F 28.9 °F 67% 29.90 in - South 9.2 mph - N/A   Unknown
4:52 PM 37.9 °F 32.7 °F 28.0 °F 68% 29.90 in - SSW 6.9 mph - N/A   Unknown
5:52 PM 35.1 °F 31.0 °F 27.0 °F 72% 29.91 in - South 4.6 mph - N/A   Unknown
6:52 PM 33.1 °F - 26.1 °F 75% 29.91 in - Calm Calm - N/A   Unknown
7:52 PM 33.1 °F - 25.0 °F 72% 29.91 in - Calm Calm - N/A   Unknown
8:52 PM 28.0 °F - 23.0 °F 81% 29.91 in - Calm Calm - N/A   Unknown
9:52 PM 25.0 °F - 19.9 °F 81% 29.91 in - Calm Calm - N/A   Unknown
10:52 PM 27.0 °F - 19.0 °F 72% 29.90 in - Calm Calm - N/A   Unknown
11:52 PM 23.0 °F 15.8 °F 17.1 °F 78% 29.90 in - South 5.8 mph - N/A   Unknown